This is the latest recevied weather packets stored in our database for station/object E20YUC-1. If no packets are shown the sender has not sent any weather packets the latest 10 day(s).
| Time | Temp. | Humidity | Pressure | Rain* | Wind** | Luminosity | Snow |
|---|---|---|---|---|---|---|---|
| 1787487147 | 30.56° C | 70% | 995.6 hPa | 0 mm | 1.34 m/s, 0° | - | - |
| 1787486545 | 31.11° C | 70% | 995.4 hPa | 0 mm | 1.79 m/s, 0° | - | - |
| 1787486245 | 31.11° C | 70% | 995.3 hPa | 0 mm | 1.34 m/s, 0° | - | - |
| 1787485947 | 31.11° C | 71% | 995.1 hPa | 0 mm | 0.89 m/s, 0° | - | - |
| 1787485646 | 31.11° C | 71% | 995 hPa | 0 mm | 0 m/s | - | - |
| 1787485045 | 31.11° C | 71% | 995.1 hPa | 0 mm | 0 m/s | - | - |
| 1787484444 | 31.11° C | 70% | 995.1 hPa | 0 mm | 2.24 m/s, 0° | - | - |
| 1787484146 | 31.11° C | 70% | 995 hPa | 0 mm | 0 m/s | - | - |
| 1787483844 | 31.11° C | 69% | 995 hPa | 0 mm | 0 m/s | - | - |
| 1787483544 | 31.11° C | 69% | 994.9 hPa | 0 mm | 0.45 m/s, 0° | - | - |
| 1787482944 | 31.67° C | 69% | 994.7 hPa | 0 mm | 1.34 m/s, 0° | - | - |
| 1787482646 | 31.67° C | 68% | 994.8 hPa | 0 mm | 2.24 m/s, 0° | - | - |
| 1787482346 | 31.67° C | 68% | 994.8 hPa | 0 mm | 2.68 m/s, 0° | - | - |
| 1787481744 | 31.67° C | 67% | 994.9 hPa | 0 mm | 2.24 m/s, 0° | - | - |
| 1787481444 | 31.67° C | 67% | 994.9 hPa | 0 mm | 2.68 m/s, 0° | - | - |
| 1787481146 | 31.67° C | 67% | 994.9 hPa | 0 mm | 2.24 m/s, 0° | - | - |
| 1787480544 | 32.22° C | 66% | 994.8 hPa | 0 mm | 0 m/s | - | - |
| 1787479944 | 32.22° C | 67% | 994.8 hPa | 0 mm | 1.79 m/s, 0° | - | - |
| 1787479645 | 32.22° C | 67% | 994.6 hPa | 0 mm | 2.24 m/s, 0° | - | - |
| 1787479344 | 32.22° C | 67% | 994.7 hPa | 0 mm | 0 m/s | - | - |
| 1787479044 | 32.22° C | 66% | 994.7 hPa | 0 mm | 0.89 m/s, 0° | - | - |
| 1787478443 | 32.78° C | 66% | 994.7 hPa | 0 mm | 2.24 m/s, 0° | - | - |
| 1787478145 | 32.78° C | 66% | 994.7 hPa | 0 mm | 0.89 m/s, 0° | - | - |
| 1787477843 | 32.78° C | 66% | 994.6 hPa | 0 mm | 2.68 m/s, 0° | - | - |
| 1787477543 | 32.78° C | 66% | 994.6 hPa | 0 mm | 2.68 m/s, 0° | - | - |
* Rain latest hour (hover to see other rain measurements)
** Current wind speed in m/s (hover to see current wind gust speed)